Content
SEND FEEDBACK

Daily
Averages
Monthly
Summary
United States of America

RIEPETOWN, NEVADA


Home > North America > United States > Nevada
Elevation: 7030 feet     Latitude: 39 16N     Longitude: 114 59W

WEATHER
 
SELECT A DAY
Number of Records: 192,199;   Date Range: 1/1/95 - 9/30/14
 
SHARE

PRINT THIS DATA

[ ← Previous Day ]
WEATHER ALMANAC - FEBRUARY 5, 2013
[ Next Day → ]
[ °C ]   °F
Weather ElementAverageHighLow
Temperature36.1 °F50 °F (1:53 pm)21 °F (5:53 am)
Dewpoint19.3 °F24.1 °F (3:53 pm)15.1 °F (1:53 am)
Humidity53.3 %78 % (5:53 am)28 % (12:53 pm)
Barometer29.99 in30.14 in (6:53 am)29.82 in (10:53 pm)
Wind Speed6.6 mph15 mph (6:53 am)
Weather ElementAverage
Visibility10 mi
Wind DirectionSE (137.4 °)

Weather ElementTotal
Precipitation---
Heating Degree Days29.5 (Base 65)
Averaged from 23 records on February 5, 2013
WEATHER CONDITIONS BREAKOUT
WIND DIRECTION BREAKOUT
WEATHER BY HOUR - FEBRUARY 5, 2013
[ °C ]   °F
Local TimeTemperatureDewpointHumidityBarometerVisibilityWind DirectionWind SpeedGust SpeedPrecipitationEventsConditions
1:53 AM21.9 °F15.1 °F75 %30.09 in10.0 miWest (270°)4.6 mphClear
2:53 AM24.1 °F15.1 °F69 %30.06 in10.0 miNorthClear
3:53 AM23.0 °F15.1 °F72 %30.05 in10.0 miSouth (180°)5.8 mphClear
4:53 AM23.0 °F15.1 °F72 %30.11 in10.0 miSouth (170°)10.4 mphClear
5:53 AM21.0 °F15.1 °F78 %30.13 in10.0 miSSE (160°)11.5 mphClear
6:53 AM23.0 °F15.1 °F72 %30.14 in10.0 miSouth (180°)15.0 mphClear
7:53 AM26.1 °F16.0 °F66 %30.14 in10.0 miSE (140°)8.1 mphClear
8:53 AM30.0 °F19.0 °F64 %30.12 in10.0 miSSW (200°)6.9 mphClear
9:53 AM39.9 °F18.0 °F41 %30.09 in10.0 miCalmClear
10:53 AM46.0 °F19.0 °F34 %30.04 in10.0 miCalmOvercast
11:53 AM48.0 °F19.9 °F33 %29.98 in10.0 miCalmOvercast
12:53 PM48.9 °F17.1 °F28 %29.94 in10.0 miNorth
1:53 PM50.0 °F19.9 °F31 %29.92 in10.0 miCalmClear
2:53 PM48.0 °F21.9 °F36 %29.91 in10.0 miSE (140°)8.1 mphMostly Cloudy
3:53 PM45.0 °F24.1 °F44 %29.91 in10.0 miSouth (170°)4.6 mphMostly Cloudy
4:53 PM44.1 °F21.0 °F40 %29.92 in10.0 miSouth (190°)4.6 mphClear
5:53 PM39.9 °F23.0 °F51 %29.94 in10.0 miSSE (160°)5.8 mphClear
6:53 PM39.0 °F23.0 °F53 %29.94 in10.0 miSSW (200°)8.1 mphClear
7:53 PM37.9 °F23.0 °F55 %29.93 in10.0 miSSW (200°)10.4 mphClear
8:53 PM37.0 °F24.1 °F59 %29.90 in10.0 miSSW (200°)9.2 mphClear
9:53 PM37.9 °F23.0 °F55 %29.86 in10.0 miSSW (200°)11.5 mphClear
10:53 PM39.0 °F21.0 °F49 %29.82 in10.0 miSouth (190°)10.4 mphClear
11:53 PM37.9 °F19.9 °F48 %29.83 in10.0 miSSW (210°)4.6 mphClear
Hourly data recorded from KELY, located miles away from Riepetown, Nevada







STORIES FROM OUR PARTNERS